Time,TemperatureF,DewpointF,PressureIn,WindDirection,WindDirectionDegrees,WindSpeedMPH,WindSpeedGustMPH,Humidity,HourlyPrecipIn,Conditions,Clouds,dailyrainin,SoftwareType,DateUTC
2013-05-02 00:01:00,51.0,37.0,30.54,NNE,19,3.0,6.0,58,0.00,,,0.00,,2013-05-02 07:01:00,
2013-05-02 00:11:00,51.0,37.0,30.54,NNE,19,3.0,6.0,58,0.00,,,0.00,,2013-05-02 07:11:00,
2013-05-02 00:21:00,51.0,36.0,30.54,NNE,32,4.0,9.0,56,0.00,,,0.00,,2013-05-02 07:21:00,
2013-05-02 00:31:00,51.0,36.0,30.54,NNE,32,4.0,9.0,56,0.00,,,0.00,,2013-05-02 07:31:00,
2013-05-02 00:42:00,51.0,36.0,30.54,NNE,32,4.0,9.0,56,0.00,,,0.00,,2013-05-02 07:42:00,
2013-05-02 00:52:00,51.0,36.0,30.54,NNE,33,3.0,5.0,57,0.00,,,0.00,,2013-05-02 07:52:00,
2013-05-02 01:02:00,51.0,36.0,30.54,NNE,33,3.0,5.0,57,0.00,,,0.00,,2013-05-02 08:02:00,
2013-05-02 01:11:00,51.0,36.0,30.54,NNE,33,3.0,5.0,57,0.00,,,0.00,,2013-05-02 08:11:00,
2013-05-02 01:21:00,51.0,36.0,30.53,NE,37,3.0,6.0,57,0.00,,,0.00,,2013-05-02 08:21:00,
2013-05-02 01:32:00,51.0,36.0,30.53,NE,37,3.0,6.0,57,0.00,,,0.00,,2013-05-02 08:32:00,
2013-05-02 01:42:00,51.0,36.0,30.53,NE,37,3.0,6.0,57,0.00,,,0.00,,2013-05-02 08:42:00,
2013-05-02 01:52:00,50.0,36.0,30.53,NE,36,2.0,4.0,58,0.00,,,0.00,,2013-05-02 08:52:00,
2013-05-02 02:01:00,50.0,36.0,30.53,NE,36,2.0,4.0,58,0.00,,,0.00,,2013-05-02 09:01:00,
2013-05-02 02:11:00,50.0,36.0,30.53,NE,36,2.0,4.0,58,0.00,,,0.00,,2013-05-02 09:11:00,
2013-05-02 02:21:00,49.0,35.0,30.53,NNE,28,1.0,3.0,59,0.00,,,0.00,,2013-05-02 09:21:00,
2013-05-02 02:32:00,49.0,35.0,30.53,NNE,28,1.0,3.0,59,0.00,,,0.00,,2013-05-02 09:32:00,
2013-05-02 02:42:00,49.0,35.0,30.53,NNE,28,1.0,3.0,59,0.00,,,0.00,,2013-05-02 09:42:00,
2013-05-02 02:52:00,49.0,36.0,30.53,North,349,2.0,3.0,61,0.00,,,0.00,,2013-05-02 09:52:00,
2013-05-02 03:02:00,49.0,36.0,30.53,North,349,2.0,3.0,61,0.00,,,0.00,,2013-05-02 10:02:00,
2013-05-02 03:12:00,49.0,36.0,30.53,North,349,2.0,3.0,61,0.00,,,0.00,,2013-05-02 10:12:00,
2013-05-02 03:22:00,49.0,36.0,30.53,NNE,13,3.0,5.0,61,0.00,,,0.00,,2013-05-02 10:22:00,
2013-05-02 03:32:00,49.0,36.0,30.53,NNE,13,3.0,5.0,61,0.00,,,0.00,,2013-05-02 10:32:00,
2013-05-02 03:42:00,49.0,36.0,30.53,NNE,13,3.0,5.0,61,0.00,,,0.00,,2013-05-02 10:42:00,
2013-05-02 03:52:00,48.0,36.0,30.52,NNW,329,2.0,5.0,64,0.00,,,0.00,,2013-05-02 10:52:00,
2013-05-02 04:02:00,48.0,36.0,30.52,NNW,329,2.0,5.0,64,0.00,,,0.00,,2013-05-02 11:02:00,
2013-05-02 04:11:00,48.0,36.0,30.52,NNW,329,2.0,5.0,64,0.00,,,0.00,,2013-05-02 11:11:00,
2013-05-02 04:21:00,48.0,37.0,30.50,NE,36,3.0,6.0,66,0.00,,,0.00,,2013-05-02 11:21:00,
2013-05-02 04:31:00,48.0,37.0,30.50,NE,36,3.0,6.0,66,0.00,,,0.00,,2013-05-02 11:31:00,
2013-05-02 04:42:00,48.0,37.0,30.50,NE,36,3.0,6.0,66,0.00,,,0.00,,2013-05-02 11:42:00,
2013-05-02 04:52:00,47.0,37.0,30.50,North,349,1.0,3.0,69,0.00,,,0.00,,2013-05-02 11:52:00,
2013-05-02 05:01:00,47.0,37.0,30.50,North,349,1.0,3.0,69,0.00,,,0.00,,2013-05-02 12:01:00,
2013-05-02 05:11:00,47.0,37.0,30.50,North,349,1.0,3.0,69,0.00,,,0.00,,2013-05-02 12:11:00,
2013-05-02 05:21:00,47.0,38.0,30.50,NW,319,2.0,5.0,70,0.00,,,0.00,,2013-05-02 12:21:00,
2013-05-02 05:32:00,47.0,38.0,30.50,NW,319,2.0,5.0,70,0.00,,,0.00,,2013-05-02 12:32:00,
2013-05-02 05:42:00,47.0,38.0,30.50,NW,319,2.0,5.0,70,0.00,,,0.00,,2013-05-02 12:42:00,
2013-05-02 05:52:00,46.0,37.0,30.50,North,359,2.0,5.0,71,0.00,,,0.00,,2013-05-02 12:52:00,
2013-05-02 06:01:00,46.0,37.0,30.50,North,359,2.0,5.0,71,0.00,,,0.00,,2013-05-02 13:01:00,
2013-05-02 06:11:00,46.0,37.0,30.50,North,359,2.0,5.0,71,0.00,,,0.00,,2013-05-02 13:11:00,
2013-05-02 06:21:00,46.0,38.0,30.49,NNE,27,4.0,6.0,73,0.00,,,0.00,,2013-05-02 13:21:00,
2013-05-02 06:31:00,46.0,38.0,30.49,NNE,27,4.0,6.0,73,0.00,,,0.00,,2013-05-02 13:31:00,
2013-05-02 06:42:00,46.0,38.0,30.49,NNE,27,4.0,6.0,73,0.00,,,0.00,,2013-05-02 13:42:00,
2013-05-02 06:52:00,46.0,38.0,30.49,NE,37,2.0,5.0,74,0.00,,,0.00,,2013-05-02 13:52:00,
2013-05-02 07:02:00,46.0,38.0,30.49,NE,37,2.0,5.0,74,0.00,,,0.00,,2013-05-02 14:02:00,
2013-05-02 07:11:00,46.0,38.0,30.49,NE,37,2.0,5.0,74,0.00,,,0.00,,2013-05-02 14:11:00,
2013-05-02 07:21:00,48.0,40.0,30.49,NE,39,1.0,3.0,74,0.00,,,0.00,,2013-05-02 14:21:00,
2013-05-02 07:31:00,48.0,40.0,30.49,NE,39,1.0,3.0,74,0.00,,,0.00,,2013-05-02 14:31:00,
2013-05-02 07:43:00,48.0,40.0,30.49,NE,39,1.0,3.0,74,0.00,,,0.00,,2013-05-02 14:43:00,
2013-05-02 07:52:00,49.0,40.0,30.49,NNE,32,2.0,4.0,71,0.00,,,0.00,,2013-05-02 14:52:00,
2013-05-02 08:02:00,49.0,40.0,30.49,NNE,32,2.0,4.0,71,0.00,,,0.00,,2013-05-02 15:02:00,
2013-05-02 08:12:00,49.0,40.0,30.49,NNE,32,2.0,4.0,71,0.00,,,0.00,,2013-05-02 15:12:00,
2013-05-02 08:21:00,50.0,40.0,30.49,NE,45,3.0,5.0,68,0.00,,,0.00,,2013-05-02 15:21:00,
2013-05-02 08:32:00,50.0,40.0,30.49,NE,45,3.0,5.0,68,0.00,,,0.00,,2013-05-02 15:32:00,
2013-05-02 08:43:00,50.0,40.0,30.49,NE,45,3.0,5.0,68,0.00,,,0.00,,2013-05-02 15:43:00,
2013-05-02 09:02:00,51.0,40.0,30.48,North,352,2.0,5.0,67,0.00,,,0.00,,2013-05-02 16:02:00,
2013-05-02 09:13:00,51.0,40.0,30.48,North,352,2.0,5.0,67,0.00,,,0.00,,2013-05-02 16:13:00,
2013-05-02 09:22:00,53.0,41.0,30.47,North,3,3.0,6.0,64,0.00,,,0.00,,2013-05-02 16:22:00,
2013-05-02 09:32:00,53.0,41.0,30.47,North,3,3.0,6.0,64,0.00,,,0.00,,2013-05-02 16:32:00,
2013-05-02 09:43:00,53.0,41.0,30.47,North,3,3.0,6.0,64,0.00,,,0.00,,2013-05-02 16:43:00,
2013-05-02 09:52:00,55.0,43.0,30.47,NNE,27,2.0,5.0,63,0.00,,,0.00,,2013-05-02 16:52:00,
2013-05-02 10:02:00,55.0,43.0,30.47,NNE,27,2.0,5.0,63,0.00,,,0.00,,2013-05-02 17:02:00,
2013-05-02 10:12:00,55.0,43.0,30.47,NNE,27,2.0,5.0,63,0.00,,,0.00,,2013-05-02 17:12:00,
2013-05-02 10:22:00,56.0,42.0,30.46,NW,309,4.0,8.0,60,0.00,,,0.00,,2013-05-02 17:22:00,
2013-05-02 10:31:00,56.0,42.0,30.46,NW,309,4.0,8.0,60,0.00,,,0.00,,2013-05-02 17:31:00,
2013-05-02 10:42:00,56.0,42.0,30.46,NW,309,4.0,8.0,60,0.00,,,0.00,,2013-05-02 17:42:00,
2013-05-02 10:52:00,55.0,41.0,30.46,NNW,330,5.0,9.0,60,0.00,,,0.00,,2013-05-02 17:52:00,
2013-05-02 11:01:00,55.0,41.0,30.46,NNW,330,5.0,9.0,60,0.00,,,0.00,,2013-05-02 18:01:00,
2013-05-02 11:11:00,55.0,41.0,30.46,NNW,330,5.0,9.0,60,0.00,,,0.00,,2013-05-02 18:11:00,
2013-05-02 11:21:00,57.0,41.0,30.45,WNW,295,7.0,11.0,56,0.00,,,0.00,,2013-05-02 18:21:00,
2013-05-02 11:31:00,57.0,41.0,30.45,WNW,295,7.0,11.0,56,0.00,,,0.00,,2013-05-02 18:31:00,
2013-05-02 11:42:00,57.0,41.0,30.45,WNW,295,7.0,11.0,56,0.00,,,0.00,,2013-05-02 18:42:00,
2013-05-02 11:52:00,59.0,42.0,30.44,NW,318,6.0,11.0,54,0.00,,,0.00,,2013-05-02 18:52:00,
2013-05-02 12:01:00,59.0,42.0,30.44,NW,318,6.0,11.0,54,0.00,,,0.00,,2013-05-02 19:01:00,
2013-05-02 12:11:00,59.0,42.0,30.44,NW,318,6.0,11.0,54,0.00,,,0.00,,2013-05-02 19:11:00,
2013-05-02 12:21:00,60.0,42.0,30.44,NNW,345,6.0,10.0,52,0.00,,,0.00,,2013-05-02 19:21:00,
2013-05-02 12:31:00,60.0,42.0,30.44,NNW,345,6.0,10.0,52,0.00,,,0.00,,2013-05-02 19:31:00,
2013-05-02 12:42:00,60.0,42.0,30.44,NNW,345,6.0,10.0,52,0.00,,,0.00,,2013-05-02 19:42:00,
2013-05-02 12:52:00,60.0,38.0,30.43,NNW,344,8.0,14.0,44,0.00,,,0.00,,2013-05-02 19:52:00,
2013-05-02 13:01:00,60.0,38.0,30.43,NNW,344,8.0,14.0,44,0.00,,,0.00,,2013-05-02 20:01:00,
2013-05-02 13:11:00,60.0,38.0,30.43,NNW,344,8.0,14.0,44,0.00,,,0.00,,2013-05-02 20:11:00,
2013-05-02 13:21:00,62.0,42.0,30.42,WNW,300,5.0,14.0,47,0.00,,,0.00,,2013-05-02 20:21:00,
2013-05-02 13:32:00,62.0,42.0,30.42,WNW,300,5.0,14.0,47,0.00,,,0.00,,2013-05-02 20:32:00,
2013-05-02 13:42:00,62.0,42.0,30.42,WNW,300,5.0,14.0,47,0.00,,,0.00,,2013-05-02 20:42:00,
2013-05-02 13:52:00,61.0,40.0,30.41,NW,322,7.0,14.0,46,0.00,,,0.00,,2013-05-02 20:52:00,
2013-05-02 14:01:00,61.0,40.0,30.41,NW,322,7.0,14.0,46,0.00,,,0.00,,2013-05-02 21:01:00,
2013-05-02 14:11:00,61.0,40.0,30.41,NW,322,7.0,14.0,46,0.00,,,0.00,,2013-05-02 21:11:00,
2013-05-02 14:21:00,62.0,42.0,30.41,NW,319,9.0,14.0,47,0.00,,,0.00,,2013-05-02 21:21:00,
2013-05-02 14:33:00,62.0,42.0,30.41,NW,319,9.0,14.0,47,0.00,,,0.00,,2013-05-02 21:33:00,
2013-05-02 14:42:00,62.0,42.0,30.41,NW,319,9.0,14.0,47,0.00,,,0.00,,2013-05-02 21:42:00,
2013-05-02 14:53:00,63.0,42.0,30.40,WNW,293,8.0,14.0,46,0.00,,,0.00,,2013-05-02 21:53:00,
2013-05-02 15:02:00,63.0,42.0,30.40,WNW,293,8.0,14.0,46,0.00,,,0.00,,2013-05-02 22:02:00,
2013-05-02 15:12:00,63.0,42.0,30.40,WNW,293,8.0,14.0,46,0.00,,,0.00,,2013-05-02 22:12:00,
2013-05-02 15:22:00,63.0,42.0,30.40,NNE,29,5.0,15.0,47,0.00,,,0.00,,2013-05-02 22:22:00,
2013-05-02 15:32:00,63.0,42.0,30.40,NNE,29,5.0,15.0,47,0.00,,,0.00,,2013-05-02 22:32:00,
2013-05-02 15:42:00,63.0,42.0,30.40,NNE,29,5.0,15.0,47,0.00,,,0.00,,2013-05-02 22:42:00,
2013-05-02 15:52:00,62.0,40.0,30.39,NNE,16,7.0,10.0,45,0.00,,,0.00,,2013-05-02 22:52:00,
2013-05-02 16:02:00,62.0,40.0,30.39,NNE,16,7.0,10.0,45,0.00,,,0.00,,2013-05-02 23:02:00,
2013-05-02 16:11:00,62.0,40.0,30.39,NNE,16,7.0,10.0,45,0.00,,,0.00,,2013-05-02 23:11:00,
2013-05-02 16:22:00,61.0,37.0,30.39,NNW,338,8.0,17.0,41,0.00,,,0.00,,2013-05-02 23:22:00,
2013-05-02 16:31:00,61.0,37.0,30.39,NNW,338,8.0,17.0,41,0.00,,,0.00,,2013-05-02 23:31:00,
2013-05-02 16:42:00,61.0,37.0,30.39,NNW,338,8.0,17.0,41,0.00,,,0.00,,2013-05-02 23:42:00,
2013-05-02 16:52:00,60.0,37.0,30.39,North,6,4.0,12.0,43,0.00,,,0.00,,2013-05-02 23:52:00,
2013-05-02 17:01:00,60.0,37.0,30.39,North,6,4.0,12.0,43,0.00,,,0.00,,2013-05-03 00:01:00,
2013-05-02 17:11:00,60.0,37.0,30.39,North,6,4.0,12.0,43,0.00,,,0.00,,2013-05-03 00:11:00,
2013-05-02 17:21:00,60.0,39.0,30.38,NNE,33,5.0,13.0,46,0.00,,,0.00,,2013-05-03 00:21:00,
2013-05-02 17:31:00,60.0,39.0,30.38,NNE,33,5.0,13.0,46,0.00,,,0.00,,2013-05-03 00:31:00,
2013-05-02 17:42:00,60.0,39.0,30.38,NNE,33,5.0,13.0,46,0.00,,,0.00,,2013-05-03 00:42:00,
2013-05-02 17:52:00,59.0,37.0,30.37,WNW,283,7.0,15.0,44,0.00,,,0.00,,2013-05-03 00:52:00,
2013-05-02 18:01:00,59.0,37.0,30.37,WNW,283,7.0,15.0,44,0.00,,,0.00,,2013-05-03 01:01:00,
2013-05-02 18:11:00,59.0,37.0,30.37,WNW,283,7.0,15.0,44,0.00,,,0.00,,2013-05-03 01:11:00,
2013-05-02 18:21:00,59.0,39.0,30.37,NNE,15,4.0,12.0,47,0.00,,,0.00,,2013-05-03 01:21:00,
2013-05-02 18:31:00,59.0,39.0,30.37,NNE,15,4.0,12.0,47,0.00,,,0.00,,2013-05-03 01:31:00,
2013-05-02 18:42:00,59.0,39.0,30.37,NNE,15,4.0,12.0,47,0.00,,,0.00,,2013-05-03 01:42:00,
2013-05-02 18:52:00,58.0,40.0,30.38,North,354,7.0,13.0,52,0.00,,,0.00,,2013-05-03 01:52:00,
2013-05-02 19:01:00,58.0,40.0,30.38,North,354,7.0,13.0,52,0.00,,,0.00,,2013-05-03 02:01:00,
2013-05-02 19:11:00,58.0,40.0,30.38,North,354,7.0,13.0,52,0.00,,,0.00,,2013-05-03 02:11:00,
2013-05-02 19:21:00,57.0,38.0,30.38,WNW,294,5.0,14.0,49,0.00,,,0.00,,2013-05-03 02:21:00,
2013-05-02 19:31:00,57.0,38.0,30.38,WNW,294,5.0,14.0,49,0.00,,,0.00,,2013-05-03 02:31:00,
2013-05-02 19:42:00,57.0,38.0,30.38,WNW,294,5.0,14.0,49,0.00,,,0.00,,2013-05-03 02:42:00,
2013-05-02 19:52:00,56.0,40.0,30.37,NE,46,5.0,11.0,54,0.00,,,0.00,,2013-05-03 02:52:00,
2013-05-02 20:01:00,56.0,40.0,30.37,NE,46,5.0,11.0,54,0.00,,,0.00,,2013-05-03 03:01:00,
2013-05-02 20:11:00,56.0,40.0,30.37,NE,46,5.0,11.0,54,0.00,,,0.00,,2013-05-03 03:11:00,
2013-05-02 20:21:00,56.0,41.0,30.36,NNE,29,3.0,9.0,56,0.00,,,0.00,,2013-05-03 03:21:00,
2013-05-02 20:32:00,56.0,41.0,30.36,NNE,29,3.0,9.0,56,0.00,,,0.00,,2013-05-03 03:32:00,
2013-05-02 20:43:00,56.0,41.0,30.36,NNE,29,3.0,9.0,56,0.00,,,0.00,,2013-05-03 03:43:00,
2013-05-02 20:53:00,56.0,42.0,30.37,North,7,3.0,7.0,59,0.00,,,0.00,,2013-05-03 03:53:00,
2013-05-02 21:02:00,56.0,42.0,30.37,North,7,3.0,7.0,59,0.00,,,0.00,,2013-05-03 04:02:00,
2013-05-02 21:12:00,56.0,42.0,30.37,North,7,3.0,7.0,59,0.00,,,0.00,,2013-05-03 04:12:00,
2013-05-02 21:22:00,54.0,42.0,30.38,NNW,331,4.0,9.0,63,0.00,,,0.00,,2013-05-03 04:22:00,
2013-05-02 21:32:00,54.0,42.0,30.38,NNW,331,4.0,9.0,63,0.00,,,0.00,,2013-05-03 04:32:00,
2013-05-02 21:43:00,54.0,42.0,30.38,NNW,331,4.0,9.0,63,0.00,,,0.00,,2013-05-03 04:43:00,
2013-05-02 21:53:00,54.0,41.0,30.38,NNE,20,4.0,9.0,62,0.00,,,0.00,,2013-05-03 04:53:00,
2013-05-02 22:02:00,54.0,41.0,30.38,NNE,20,4.0,9.0,62,0.00,,,0.00,,2013-05-03 05:02:00,
2013-05-02 22:12:00,54.0,41.0,30.38,NNE,20,4.0,9.0,62,0.00,,,0.00,,2013-05-03 05:12:00,
2013-05-02 22:21:00,53.0,41.0,30.37,NE,43,4.0,9.0,63,0.00,,,0.00,,2013-05-03 05:21:00,
2013-05-02 22:32:00,53.0,41.0,30.37,NE,43,4.0,9.0,63,0.00,,,0.00,,2013-05-03 05:32:00,
2013-05-02 22:42:00,53.0,41.0,30.37,NE,43,4.0,9.0,63,0.00,,,0.00,,2013-05-03 05:42:00,
2013-05-02 22:52:00,54.0,40.0,30.37,NNE,17,4.0,10.0,59,0.00,,,0.00,,2013-05-03 05:52:00,
2013-05-02 23:01:00,54.0,40.0,30.37,NNE,17,4.0,10.0,59,0.00,,,0.00,,2013-05-03 06:01:00,
2013-05-02 23:11:00,54.0,40.0,30.37,NNE,17,4.0,10.0,59,0.00,,,0.00,,2013-05-03 06:11:00,
2013-05-02 23:21:00,53.0,40.0,30.37,NNE,28,2.0,12.0,61,0.00,,,0.00,,2013-05-03 06:21:00,
2013-05-02 23:31:00,53.0,40.0,30.37,NNE,28,2.0,12.0,61,0.00,,,0.00,,2013-05-03 06:31:00,
2013-05-02 23:42:00,53.0,40.0,30.37,NNE,28,2.0,12.0,61,0.00,,,0.00,,2013-05-03 06:42:00,
2013-05-02 23:52:00,52.0,39.0,30.38,NE,46,3.0,6.0,62,0.00,,,0.00,,2013-05-03 06:52:00,